Location: Marcé
(47.5801°N, 0.3280°W)
Time: 15:04:29
(UTC+01:00)

Explorer 7 - Pass Details

Date: 08 December 2021
Orbit: 483 x 674 km, 50.3° (Epoch: 19 January)

Event Time Altitude Azimuth Distance (km) Brightness Sun altitude
Rises 09:48:02 0° 289° (WNW) 2,728 9.8 8.3°
Reaches altitude 10° 09:50:20 10° 289° (WNW) 1,800 9.0 8.6°
Maximum altitude 09:54:24 81° 203° (SSW) 529 7.0 9.0°
Drops below altitude 10° 09:58:15 10° 116° (ESE) 1,703 10.8 9.4°
Sets 10:00:23 0° 115° (ESE) 2,566 11.6 9.7°
